{"data":{"norad_id":69178,"intl_designator":"2026-112B","name":"ELECTRON KICK STAGE R/B","alt_names":[],"object_type":"ROCKET_BODY","status":"UNKNOWN","operator":null,"country":"US","launch_date":"2026-05-22","launch_site_code":"RLLB","launch_vehicle":null,"mission":null,"orbit_class":"UNKNOWN","rcs_meters":null,"size_class":null,"mass_kg":null,"dimensions":null,"purposes":[],"wikipedia_slug":null,"has_3d_model":false,"image_url":null,"decayed_at":null,"tle_current":{"epoch":"2026-06-20T10:02:26.729088Z","epoch_age_seconds":7983562,"freshness":"OLD","line1":"1 69178U 26112B   26171.41836492  .00003634  00000+0  28746-3 0  9992","line2":"2 69178  44.9055 175.3007 0024316  67.9151 292.4299 15.02207020  4367","mean_motion":15.0220702,"eccentricity":0.0024316,"inclination_deg":44.9055,"raan_deg":175.3007,"arg_perigee_deg":67.9151,"mean_anomaly_deg":292.4299,"bstar":0.00028746,"rev_number":436,"period_min":95.858958241321,"perigee_km":543.22132135012,"apogee_km":576.96331817799,"semimajor_km":6938.2293197641,"source":"CELESTRAK","updated_at":"2026-06-21T09:00:33.511201Z"}}}